OBJECT H, 61901

Orbit data source: Space-Track

You're viewing an Uncataloged Satellite

Recently launched and/or uncataloged satellites may have evolving metadata. Metadata may include but not limited to: Owner, Maufacturer, Bus, Motor, and Mission.

OBJECT H, 61901 is a Chinese satellite in SSO that was launched on Mon, 11 Nov 2024 UTC via a LIJIAN-1 launch vehicle from the Jiuquan Satellite Launch Center, China (JSC). Unknown objects in Earth's orbit typically refer to objects detected orbiting the Earth but have not yet been identified or cataloged. These objects could be anything from previously untracked satellites, spent rocket stages, debris from satellite collisions, or even natural meteoroids temporarily captured by Earth's gravity.

Loading next visibility...
Identifier
61901, 2024-205H
Orbit
SSO
Country
Flag of CNCN / PRC
Related business
None
Manufacturer
Unknown
Mission
Operational Commercial Imaging
Bus & Motor
Unknown
Mass
Unknown
Launch date (UTC)
2024-11-11 (1 year ago)
Launch vehicle
LIJIAN-1
Launch site
Jiuquan Satellite Launch Center, China (JSC)
Object type
Unknown
Shape & HBR
Box + 2 Pan, 0.5 m
Radar Cross Section
0.195 m², Medium (>0.1 m² and < 1m²)

Expand to show TLE details & history
Last TLE update: 13 hours ago

TLE from 13 hours ago
0 OBJECT H
1 61901U 24205H   26100.30128902  .00014184  00000-0  48845-3 0  9994
2 61901  97.4125 178.3836 0008406 277.5802  82.4483 15.30114635 78331
Epoch: 2026-04-10T07:13Z
TLE epoch observation values (Epoch: 2026-04-10T07:13:51.371Z)
Latitude
-0.00008°
Longitude
-128.61735°
Altitude
477.821 km
Speed
7.627 km/s
True Right ascension
11h 53m 32s
True Declination
0° 00' 00"
Sunlit
Object was in full shadow at epoch
Visualization orbit readout
Latitude
Unknown
Longitude
Unknown
Altitude
Unknown
Speed
Unknown
Apparent Right ascension
Unknown
Apparent Declination
Unknown
Sunlit
N/A
Visualization observer readout
Local Sidereal Time
02:06:29
Azimuth
Unknown
Elevation
Unknown
Doppler factor
Unknown
Orbital elements
Apogee altitude
478.181 km
Perigee altitude
466.664 km
Semi-major axis
6,850.56 km
Eccentricity
0.00084
Inclination
97.4125°
RAAN
178.3836°
Arg. of periapsis
277.5802°
True anomaly
82.5438°
Mean anomaly
82.4483°
Eccentric anomaly
82.49605°
Mean motion
3.82784 °/min
Orbital period
94.05 mins
BSTAR
0.00048845
Loading maneuver chart data...
Computing Atmospheric mass density...
Loading historical data...
Loading historical data...
Loading historical data...
Loading historical data...
Loading historical data...
Loading historical data...
Loading historical data...

Documentation

Showing up to 5 results
|